Weather History for Columbia, MO

Change the Weather History Date:

Saturday, November 12, 2011

  Actual Average Record
Temperature  
Mean Temperature 50 °F 46 °F  
Max Temperature 60 °F 56 °F 78 °F (1971)
Min Temperature 40 °F 37 °F 9 °F (1911)
Degree Days  
Heating Degree Days 15 19  
Month to date heating degree days 168 197  
Since 1 July heating degree days 521 562  
Cooling Degree Days 0 0  
Month to date cooling degree days 0 0  
Year to date cooling degree days 1508 1247  
Moisture  
Dew Point 36 °F    
Average Humidity 55    
Maximum Humidity 77    
Minimum Humidity 32    
Precipitation  
Precipitation 0.00 in 0.11 in 1.06 in (1992)
Month to date precipitation 3.48 1.27  
Year to date precipitation 35.15 38.20  
Snow  
Snow 0.00 in 0.10 in 0.10 in (1983)
Month to date snowfall T 0.2  
Since 1 July snowfall T 0.2  
Since 1 September snowfall T 0.2  
Snow Depth 0.00 in    
Sea Level Pressure  
Sea Level Pressure 29.72 in    
Wind  
Wind Speed 16 mph (South)    
Max Wind Speed 29 mph    
Max Gust Speed 36 mph    
Visibility 10 miles    
Events      
T = Trace of Precipitation, MM = Missing Value Source: NWS Daily Summary

Daily Weather History Graph

Daily Weather History Graph

Search for Another Location

Airport:

Trip Planner

Search our weather history database for the weather conditions in past years. The results will help you decide how hot, cold, wet, or windy it might be!

Date:

Astronomy

Nov. 12, 2011 Rise Set
Actual Time 6:47 AM CST 4:57 PM CST
Civil Twilight 6:19 AM CST 5:26 PM CST
Nautical Twilight 5:47 AM CST 5:58 PM CST
Astronomical Twilight 5:16 AM CST 6:29 PM CST
Moon 6:15 PM CST (11/12) 8:29 AM CST (11/12)
Length of Visible Light 11h 06m
Length of Day
10h 10m
Full, 97% of the Moon is Illuminated
Nov 12
Full
Nov 18
Last Quarter
Nov 25
New
Dec 2
First Quarter
Dec 10
Full

Hourly Weather History & Observations

Time (CST) Temp. Windchill Dew Point Humidity Pressure Visibility Wind Dir Wind Speed Gust Speed Precip Events Conditions
12:54 AM 46.0 °F 40.6 °F 32.0 °F 58% 29.86 in 10.0 mi SSW 11.5 mph - N/A   Clear
1:54 AM 43.0 °F 38.2 °F 30.9 °F 62% 29.85 in 10.0 mi South 8.1 mph - N/A   Clear
2:54 AM 42.1 °F 37.1 °F 30.0 °F 62% 29.83 in 10.0 mi South 8.1 mph - N/A   Clear
3:54 AM 41.0 °F 36.4 °F 30.2 °F 65% 29.83 in 10.0 mi South 6.9 mph - N/A   Clear
4:54 AM 41.0 °F 34.7 °F 30.9 °F 67% 29.82 in 10.0 mi South 10.4 mph - N/A   Clear
5:54 AM 41.0 °F 35.2 °F 30.2 °F 65% 29.81 in 10.0 mi SSE 9.2 mph - N/A   Clear
6:54 AM 43.0 °F 37.2 °F 30.0 °F 60% 29.81 in 10.0 mi SSE 10.4 mph - N/A   Clear
7:54 AM 46.0 °F 40.6 °F 30.9 °F 56% 29.81 in 10.0 mi South 11.5 mph - N/A   Clear
8:54 AM 52.0 °F - 30.9 °F 45% 29.81 in 10.0 mi South 15.0 mph 23.0 mph N/A   Clear
9:54 AM 54.0 °F - 30.9 °F 41% 29.80 in 10.0 mi South 19.6 mph 26.5 mph N/A   Clear
10:54 AM 55.9 °F - 30.9 °F 39% 29.78 in 10.0 mi South 19.6 mph 26.5 mph N/A   Clear
11:54 AM 60.1 °F - 30.9 °F 33% 29.75 in 10.0 mi South 18.4 mph 28.8 mph N/A   Clear
12:54 PM 59.0 °F - 32.0 °F 36% 29.71 in 10.0 mi South 19.6 mph 28.8 mph N/A   Clear
1:54 PM 57.9 °F - 30.9 °F 36% 29.67 in 10.0 mi South 24.2 mph 34.5 mph N/A   Clear
2:54 PM 57.9 °F - 34.0 °F 41% 29.65 in 10.0 mi South 17.3 mph 27.6 mph N/A   Clear
3:54 PM 59.0 °F - 36.0 °F 42% 29.62 in 10.0 mi South 20.7 mph 29.9 mph N/A   Clear
4:54 PM 57.9 °F - 39.0 °F 49% 29.62 in 10.0 mi South 13.8 mph 31.1 mph N/A   Clear
5:54 PM 57.0 °F - 41.0 °F 55% 29.63 in 10.0 mi South 17.3 mph - N/A   Clear
6:54 PM 55.9 °F - 44.1 °F 64% 29.64 in 10.0 mi South 15.0 mph 26.5 mph N/A   Clear
7:54 PM 55.4 °F - 46.4 °F 72% 29.63 in 10.0 mi South 19.6 mph 28.8 mph N/A   Clear
8:54 PM 55.9 °F - 46.9 °F 72% 29.62 in 10.0 mi South 19.6 mph 29.9 mph N/A   Clear
9:54 PM 55.9 °F - 48.0 °F 75% 29.61 in 10.0 mi South 18.4 mph 26.5 mph N/A   Clear
10:54 PM 55.9 °F - 48.0 °F 75% 29.58 in 10.0 mi South 19.6 mph - N/A   Clear
11:54 PM 57.0 °F - 48.9 °F 74% 29.57 in 10.0 mi SSW 19.6 mph - N/A   Clear